Skip Page Navigation
NASA JPL Caltech
NASA Logo - Jet Propulsion Laboratory + View the NASA Portal
+ Center for Near-Earth Object Studies
JPL Home Earth Solar System Stars & Galaxies Technology
JPL Solar System Dynamics
BODIES ORBITS EPHEMERIDES TOOLS PHYSICAL DATA DISCOVERY FAQ SITE MAP
IMPORTANT: The SSD Announcement email list is now available. Major changes are coming in the near future, including possible hostname and/or URL changes. To be notified of such changes, subscribe to this email list.

Please visit this page for more details.


JPL Small-Body Database Browser
Search: [ help ]  
27994 (1997 WM1)
Classification: Main-belt Asteroid          SPK-ID: 2027994
Ephemeris | Orbit Diagram | Orbital Elements | Mission Design | Physical Parameters | Discovery Circumstances | Close-Approach Data ]

[ show orbit diagram ]
Orbital Elements at Epoch 2458600.5 (2019-Apr-27.0) TDB
Reference: JPL 28 (heliocentric ecliptic J2000)
 Element Value Uncertainty (1-sigma)   Units 
e .07435132151731334 3.5383e-08  
a 3.061352644024208 1.8904e-08 au
q 2.833737029310487 1.1408e-07 au
i 8.454127349683272 4.0848e-06 deg
node 273.084287257792 3.3384e-05 deg
peri 166.0594473490001 4.8781e-05 deg
M 345.6873840033346 3.5177e-05 deg
tp 2458678.283052998878
(2019-Jul-13.78305300)
0.00019126 TDB
period 1956.448708336758
5.36
1.8122e-05
4.962e-08
d
yr
n .1840068683967943 1.7044e-09 deg/d
Q 3.288968258737929 2.031e-08 au
  Orbit Determination Parameters
   # obs. used (total)      1606  
   data-arc span      8044 days (22.02 yr)  
   first obs. used      1997-11-19  
   last obs. used      2019-11-28  
   planetary ephem.      DE431  
   SB-pert. ephem.      SB431-N16  
   condition code      0  
   norm. resid. RMS      .50415  
   source      ORB  
   producer      Otto Matic  
   solution date      2019-Dec-04 01:10:17  

Additional Information
 Earth MOID = 1.85027 au 
 Jupiter MOID = 1.91847 au 
 T_jup = 3.213 
[ show covariance matrix ]

Ephemeris | Orbit Diagram | Orbital Elements | Mission Design | Physical Parameters | Discovery Circumstances | Close-Approach Data ]

Physical Parameter Table
Parameter Symbol Value Units Sigma Reference Notes
absolute magnitude H 13.2   n/a MPO337494  
diameter diameter 9.803 km 0.217 urn:nasa:pds:neowise_diameters_albedos::2.0[mainbelt] (http://adsabs.harvard.edu/abs/2011ApJ...741...68M)  
geometric albedo albedo 0.139   0.016 urn:nasa:pds:neowise_diameters_albedos::2.0[mainbelt] (http://adsabs.harvard.edu/abs/2011ApJ...741...68M)  

27994 (1997 WM1)          Discovered 1997-Nov-19 by Beijing Schmidt CCD Asteroid Program at Xinglong
Reference: 20010902/Numbers.arcLast Updated: 2004-04-19

[ show close-approach data ]
Alternate Designations
 1997 WM1 = 1999 CQ116 
Ephemeris | Orbit Diagram | Orbital Elements | Mission Design | Physical Parameters | Discovery Circumstances | Close-Approach Data ]
ABOUT SSD CREDITS/AWARDS PRIVACY/COPYRIGHT GLOSSARY LINKS
FirstGov 2019-Dec-11 20:52 UT
(server date/time)  
NASA Home Page
Site Manager:   Ryan S. Park
Webmaster  Alan B. Chamberlin